Weather History for K0VG - May, 2013

Change the Weather History Date:

Wednesday, May 22, 2013

  Actual Average (KLOZ) Record (KLOZ)
Temperature  
Mean Temperature 70 °F 66 °F  
Max Temperature 84 °F 78 °F 88 °F (1956)
Min Temperature 57 °F 55 °F 33 °F (2002)
Degree Days  
Heating Degree Days 0 2  
Month to date heating degree days 80  
Since 1 July heating degree days 4181  
Cooling Degree Days 6 4  
Month to date cooling degree days 49  
Year to date cooling degree days 75  
Growing Degree Days 20 (Base 50)    
Moisture  
Dew Point 62 °F    
Average Humidity 78    
Maximum Humidity 100    
Minimum Humidity 42    
Precipitation  
Precipitation 0.00 in 0.16 in 1.58 in (1957)
Month to date precipitation 3.65  
Year to date precipitation 19.00  
Sea Level Pressure  
Sea Level Pressure 29.96 in    
Wind  
Wind Speed 2 mph (SSW)    
Max Wind Speed 12 mph    
Max Gust Speed 20 mph    
Visibility 10 miles    
Events Rain , Thunderstorm    
T = Trace of Precipitation, MM = Missing Value Source: NWS Daily Summary

Daily Weather History Graph

Daily Weather History Graph

Search for Another Location

Airport or City:

Trip Planner

Search our weather history database for the weather conditions in past years. The results will help you decide how hot, cold, wet, or windy it might be!

Date:

Astronomy

May. 22, 2013 Rise Set
Actual Time 6:20 AM EDT 8:39 PM EDT
Civil Twilight 5:51 AM EDT 9:08 PM EDT
Nautical Twilight 5:14 AM EDT 9:44 PM EDT
Astronomical Twilight 4:35 AM EDT 10:24 PM EDT
Moon 6:03 PM EDT (5/22) 4:19 AM EDT (5/22)
Length of Visible Light 15h 17m
Length of Day
14h 18m
Waxing Gibbous, 91% of the Moon is Illuminated
May 22
Waxing Gibbous
May 25
Full
May 31
Last Quarter
Jun 8
New
Jun 16
First Quarter

Hourly Weather History & Observations

Time (EDT) Temp. Heat Index Dew Point Humidity Pressure Visibility Wind Dir Wind Speed Gust Speed Precip Events Conditions
12:15 AM 62.6 °F - 62.6 °F 100% 30.03 in 10.0 mi Calm Calm - N/A   Clear
12:35 AM 62.6 °F - 62.6 °F 100% 30.02 in 10.0 mi Calm Calm - N/A   Clear
12:55 AM 60.8 °F - 60.8 °F 100% 30.01 in 10.0 mi Calm Calm - N/A   Clear
1:15 AM 60.8 °F - 60.8 °F 100% 30.01 in 10.0 mi Calm Calm - N/A   Unknown
1:35 AM 60.8 °F - 60.8 °F 100% 30.01 in 10.0 mi Calm Calm - N/A   Unknown
1:55 AM 59.0 °F - 59.0 °F 100% 30.00 in 8.0 mi Calm Calm - N/A   Unknown
2:15 AM 59.0 °F - 59.0 °F 100% 30.00 in 10.0 mi Calm Calm - N/A   Unknown
2:35 AM 59.0 °F - 59.0 °F 100% 29.99 in 9.0 mi Calm Calm - N/A   Unknown
2:55 AM 59.0 °F - 59.0 °F 100% 29.98 in 10.0 mi Calm Calm - N/A   Unknown
3:15 AM 57.2 °F - 57.2 °F 100% 29.97 in 7.0 mi Calm Calm - N/A   Unknown
5:55 AM 57.2 °F - 57.2 °F 100% 29.98 in 7.0 mi Calm Calm - N/A   Unknown
6:15 AM 57.2 °F - 57.2 °F 100% 29.99 in 8.0 mi Calm Calm - N/A   Unknown
6:35 AM 57.2 °F - 57.2 °F 100% 29.99 in 7.0 mi Calm Calm - N/A   Mostly Cloudy
6:55 AM 59.0 °F - 59.0 °F 100% 29.99 in 10.0 mi Calm Calm - N/A   Mostly Cloudy
7:15 AM 59.0 °F - 59.0 °F 100% 29.99 in 9.0 mi Calm Calm - N/A   Partly Cloudy
7:35 AM 59.0 °F - 59.0 °F 100% 29.99 in 10.0 mi Calm Calm - N/A   Clear
7:55 AM 60.8 °F - 60.8 °F 100% 30.00 in 10.0 mi Calm Calm - N/A   Scattered Clouds
8:15 AM 62.6 °F - 60.8 °F 94% 30.01 in 10.0 mi Calm Calm - N/A   Overcast
8:35 AM 62.6 °F - 60.8 °F 94% 30.01 in 10.0 mi Calm Calm - N/A   Overcast
8:55 AM 62.6 °F - 62.6 °F 100% 30.01 in 10.0 mi Calm Calm - N/A   Overcast
9:15 AM 64.4 °F - 62.6 °F 94% 30.01 in 10.0 mi Calm Calm - N/A   Mostly Cloudy
9:35 AM 66.2 °F - 62.6 °F 88% 30.01 in 10.0 mi Calm Calm - N/A   Overcast
9:55 AM 68.0 °F - 64.4 °F 88% 30.01 in 10.0 mi Calm Calm - N/A   Mostly Cloudy
10:15 AM 71.6 °F - 62.6 °F 73% 30.01 in 10.0 mi Calm Calm - N/A   Mostly Cloudy
10:35 AM 73.4 °F - 62.6 °F 69% 30.01 in 10.0 mi Calm Calm - N/A   Mostly Cloudy
10:55 AM 73.4 °F - 62.6 °F 69% 30.00 in 10.0 mi Calm Calm - N/A   Overcast
11:15 AM 75.2 °F - 62.6 °F 65% 30.00 in 10.0 mi Calm Calm - N/A   Mostly Cloudy
11:35 AM 75.2 °F - 64.4 °F 69% 30.00 in 10.0 mi Calm Calm - N/A   Mostly Cloudy
11:55 AM 77.0 °F - 64.4 °F 65% 29.99 in 10.0 mi SSW 11.5 mph - N/A   Scattered Clouds
12:15 PM 78.8 °F - 64.4 °F 61% 29.99 in 10.0 mi SW 9.2 mph - N/A   Partly Cloudy
12:35 PM 80.6 °F 82.3 °F 64.4 °F 58% 29.98 in 10.0 mi SW 6.9 mph - N/A   Clear
12:55 PM 80.6 °F 82.3 °F 64.4 °F 58% 29.98 in 10.0 mi SW 9.2 mph - N/A   Partly Cloudy
1:15 PM 78.8 °F - 66.2 °F 65% 29.98 in 10.0 mi Calm Calm - N/A   Mostly Cloudy
1:35 PM 80.6 °F 82.3 °F 64.4 °F 58% 29.96 in 10.0 mi SW 6.9 mph - N/A   Mostly Cloudy
1:55 PM 82.4 °F 83.9 °F 64.4 °F 54% 29.95 in 10.0 mi WSW 11.5 mph 19.6 mph N/A   Scattered Clouds
2:15 PM 84.2 °F 84.4 °F 60.8 °F 45% 29.95 in 10.0 mi SW 11.5 mph - N/A   Partly Cloudy
2:35 PM 84.2 °F 85.0 °F 62.6 °F 48% 29.94 in 10.0 mi WSW 8.1 mph 17.3 mph N/A   Partly Cloudy
2:55 PM 82.4 °F 83.4 °F 62.6 °F 51% 29.93 in 10.0 mi West 9.2 mph - N/A   Partly Cloudy
3:15 PM 82.4 °F 82.9 °F 60.8 °F 48% 29.92 in 10.0 mi Calm Calm - N/A   Clear
3:35 PM 82.4 °F 82.5 °F 59.0 °F 45% 29.90 in 10.0 mi WSW 9.2 mph - N/A   Clear
3:55 PM 84.2 °F 83.8 °F 59.0 °F 42% 29.90 in 10.0 mi WSW 9.2 mph - N/A   Partly Cloudy
4:15 PM 82.4 °F 82.0 °F 57.2 °F 42% 29.90 in 10.0 mi SW 10.4 mph - N/A   Clear
4:35 PM 80.6 °F 81.1 °F 59.0 °F 48% 29.90 in 10.0 mi South 5.8 mph - N/A Rain Light Rain
4:55 PM 78.8 °F - 59.0 °F 51% 29.90 in 10.0 mi Calm Calm - N/A   Clear
5:15 PM 78.8 °F - 62.6 °F 57% 29.89 in 10.0 mi SE 5.8 mph - N/A   Clear
5:35 PM 80.6 °F 81.8 °F 62.6 °F 54% 29.90 in 10.0 mi SSE 10.4 mph 19.6 mph N/A   Clear
5:55 PM 77.0 °F - 59.0 °F 54% 29.90 in 10.0 mi ESE 10.4 mph - N/A Thunderstorm Clear
6:15 PM 75.2 °F - 60.8 °F 61% 29.91 in 10.0 mi ENE 5.8 mph - N/A   Clear
6:35 PM 73.4 °F - 62.6 °F 69% 29.90 in 10.0 mi ENE 4.6 mph - N/A   Clear
6:55 PM 73.4 °F - 62.6 °F 69% 29.91 in 10.0 mi Calm Calm - N/A   Partly Cloudy
7:15 PM 71.6 °F - 62.6 °F 73% 29.90 in 10.0 mi ENE 5.8 mph - N/A   Partly Cloudy
7:35 PM 71.6 °F - 60.8 °F 69% 29.91 in 10.0 mi East 8.1 mph - N/A   Scattered Clouds
7:55 PM 71.6 °F - 60.8 °F 69% 29.93 in 10.0 mi ESE 5.8 mph - N/A   Scattered Clouds
8:15 PM 69.8 °F - 62.6 °F 78% 29.95 in 10.0 mi Calm Calm - N/A Rain Light Rain
8:35 PM 68.0 °F - 64.4 °F 88% 29.94 in 10.0 mi Calm Calm - N/A Rain Light Rain
8:55 PM 68.0 °F - 64.4 °F 88% 29.95 in 10.0 mi Calm Calm - N/A   Scattered Clouds
9:15 PM 66.2 °F - 62.6 °F 88% 29.94 in 10.0 mi Calm Calm - N/A   Unknown
9:35 PM 66.2 °F - 62.6 °F 88% 29.94 in 10.0 mi Calm Calm - N/A   Unknown
9:55 PM 64.4 °F - 62.6 °F 94% 29.94 in 10.0 mi Calm Calm - N/A   Unknown
10:15 PM 66.2 °F - 62.6 °F 88% 29.96 in 10.0 mi Calm Calm - N/A   Unknown
10:35 PM 64.4 °F - 62.6 °F 94% 29.97 in 10.0 mi Calm Calm - N/A   Overcast
10:55 PM 64.4 °F - 62.6 °F 94% 29.97 in 10.0 mi Calm Calm - N/A   Mostly Cloudy
11:15 PM 64.4 °F - 62.6 °F 94% 29.97 in 10.0 mi Calm Calm - N/A   Overcast
11:35 PM 64.4 °F - 62.6 °F 94% 29.97 in 10.0 mi Calm Calm - N/A   Overcast
11:55 PM 64.4 °F - 62.6 °F 94% 29.97 in 10.0 mi Calm Calm - N/A   Overcast